When you browse on this site, cookies collect data to enhance your experience and personalize the content and advertising you see.
Visit our Privacy Policy to learn more. By continuing to use the site, you agree to this use of cookies and data.
  • In Czech Republic
  • List of Countries
  • For 7 days
  • Water Temperature
  • Satellite Maps
  • Weather Map
  • Weather Widgets
  • user-avatar
    Login

    Hourly Weather Totonicapán

    Today, 17 December, Monday

    Time Temperature Precipitation Wind Pressure Humidity
    00:00 +7°C° 0 mm 1 mps 555 mmHg 79%
    01:00 +7°C° 0 mm 1 mps 555 mmHg 79%
    02:00 +7°C° 0 mm 1 mps 555 mmHg 79%
    03:00 +6°C° 0 mm 1 mps 555 mmHg 79%
    04:00 +6°C° 0 mm 1 mps 555 mmHg 79%
    05:00 +6°C° 0 mm 1 mps 555 mmHg 79%
    06:00 +6°C° 0 mm 1 mps 555 mmHg 80%
    07:00 +9°C° 0 mm 1 mps 556 mmHg 72%
    08:00 +11°C° 0 mm 1 mps 558 mmHg 64%
    09:00 +13°C° 0 mm 1 mps 559 mmHg 57%
    10:00 +15°C° 0 mm 1 mps 560 mmHg 52%
    11:00 +16°C° 0 mm 1 mps 560 mmHg 48%
    12:00 +19°C° 0 mm 1 mps 561 mmHg 43%
    13:00 +18°C° 0 mm 2 mps 560 mmHg 46%
    14:00 +17°C° 0 mm 2 mps 559 mmHg 49%
    15:00 +16°C° 0 mm 2 mps 559 mmHg 52%
    16:00 +14°C° 0 mm 2 mps 558 mmHg 63%
    17:00 +12°C° 0 mm 1 mps 556 mmHg 74%
    18:00 +10°C° 0 mm 1 mps 555 mmHg 85%
    19:00 +9°C° 0 mm 1 mps 555 mmHg 85%
    20:00 +9°C° 0 mm 1 mps 555 mmHg 85%
    21:00 +8°C° 0 mm 1 mps 556 mmHg 85%
    22:00 +8°C° 0 mm 1 mps 555 mmHg 84%
    23:00 +8°C° 0 mm 1 mps 555 mmHg 83%

    Tomorrow, 18 December, Tuesday

    Time Temperature Precipitation Wind Pressure Humidity
    00:00 +8°C° 0 mm 1 mps 555 mmHg 82%
    01:00 +8°C° 0 mm 1 mps 555 mmHg 82%
    02:00 +7°C° 0 mm 1 mps 554 mmHg 81%
    03:00 +7°C° 0 mm 1 mps 554 mmHg 81%
    04:00 +7°C° 0 mm 1 mps 554 mmHg 81%
    05:00 +7°C° 0 mm 1 mps 554 mmHg 81%
    06:00 +7°C° 0 mm 1 mps 554 mmHg 81%
    07:00 +9°C° 0 mm 1 mps 555 mmHg 73%
    08:00 +12°C° 0 mm 1 mps 557 mmHg 65%
    09:00 +14°C° 0 mm 1 mps 559 mmHg 58%
    10:00 +16°C° 0 mm 1 mps 559 mmHg 54%
    11:00 +18°C° 0 mm 1 mps 559 mmHg 49%
    12:00 +18°C° 0 mm 2 mps 560 mmHg 45%
    13:00 +18°C° 0 mm 2 mps 559 mmHg 50%
    14:00 +17°C° 0 mm 2 mps 558 mmHg 54%
    15:00 +16°C° 0 mm 2 mps 557 mmHg 58%
    16:00 +14°C° 0.3 mm 1 mps 556 mmHg 69%
    17:00 +12°C° 0.3 mm 1 mps 555 mmHg 79%
    18:00 +10°C° 0.3 mm 1 mps 554 mmHg 90%
    19:00 +9°C° 0.1 mm 1 mps 554 mmHg 90%
    20:00 +9°C° 0.1 mm 1 mps 554 mmHg 91%
    21:00 +8°C° 0.1 mm 1 mps 555 mmHg 91%
    22:00 +8°C° 0 mm 1 mps 554 mmHg 91%
    23:00 +8°C° 0 mm 1 mps 554 mmHg 90%

    Day after tomorrow, 19 December, Wednesday

    Time Temperature Precipitation Wind Pressure Humidity
    00:00 +7°C° 0 mm 1 mps 554 mmHg 90%
    01:00 +7°C° 0 mm 1 mps 554 mmHg 90%
    02:00 +7°C° 0 mm 1 mps 553 mmHg 89%
    03:00 +7°C° 0 mm 1 mps 553 mmHg 89%
    04:00 +7°C° 0 mm 1 mps 553 mmHg 88%
    05:00 +7°C° 0 mm 1 mps 553 mmHg 88%
    06:00 +7°C° 0 mm 1 mps 553 mmHg 87%
    07:00 +10°C° 0 mm 1 mps 555 mmHg 80%
    08:00 +12°C° 0 mm 1 mps 556 mmHg 73%
    09:00 +14°C° 0 mm 1 mps 558 mmHg 65%
    10:00 +15°C° 0 mm 1 mps 558 mmHg 62%
    11:00 +16°C° 0 mm 1 mps 558 mmHg 59%
    12:00 +16°C° 0 mm 1 mps 558 mmHg 55%
    13:00 +16°C° 0.1 mm 1 mps 557 mmHg 57%
    14:00 +16°C° 0.1 mm 1 mps 556 mmHg 59%
    15:00 +15°C° 0.1 mm 1 mps 555 mmHg 61%
    16:00 +14°C° 0.1 mm 1 mps 555 mmHg 68%
    17:00 +12°C° 0.1 mm 1 mps 554 mmHg 76%
    18:00 +9°C° 0.1 mm 0 mps 553 mmHg 83%
    19:00 +9°C° 0 mm 0 mps 553 mmHg 84%
    20:00 +9°C° 0 mm 1 mps 554 mmHg 85%
    21:00 +9°C° 0 mm 1 mps 554 mmHg 85%
    22:00 +8°C° 0 mm 1 mps 554 mmHg 85%
    23:00 +8°C° 0 mm 1 mps 553 mmHg 84%

    20 December, Thursday

    Time Temperature Precipitation Wind Pressure Humidity
    00:00 +8°C° 0 mm 1 mps 553 mmHg 84%
    01:00 +7°C° 0 mm 1 mps 553 mmHg 83%
    02:00 +7°C° 0 mm 1 mps 552 mmHg 81%
    03:00 +7°C° 0 mm 1 mps 552 mmHg 79%
    04:00 +7°C° 0 mm 1 mps 552 mmHg 76%
    05:00 +6°C° 0 mm 1 mps 552 mmHg 73%
    06:00 +6°C° 0 mm 1 mps 552 mmHg 69%
    07:00 +9°C° 0 mm 1 mps 554 mmHg 62%
    08:00 +12°C° 0 mm 1 mps 556 mmHg 54%
    09:00 +13°C° 0 mm 0 mps 558 mmHg 47%
    10:00 +16°C° 0 mm 1 mps 559 mmHg 43%
    11:00 +18°C° 0 mm 1 mps 559 mmHg 39%
    12:00 +20°C° 0 mm 1 mps 559 mmHg 35%
    13:00 +19°C° 0.1 mm 1 mps 558 mmHg 37%
    14:00 +18°C° 0.1 mm 2 mps 557 mmHg 40%
    15:00 +17°C° 0.1 mm 2 mps 557 mmHg 42%
    16:00 +15°C° 0.1 mm 2 mps 556 mmHg 53%
    17:00 +12°C° 0.1 mm 1 mps 555 mmHg 63%
    18:00 +10°C° 0.1 mm 1 mps 554 mmHg 74%
    19:00 +10°C° 0.1 mm 1 mps 554 mmHg 77%
    20:00 +9°C° 0.1 mm 1 mps 554 mmHg 80%
    21:00 +9°C° 0.1 mm 1 mps 555 mmHg 83%
    22:00 +9°C° 0.1 mm 1 mps 555 mmHg 83%
    23:00 +8°C° 0.1 mm 2 mps 555 mmHg 84%

    21 December, Friday

    Time Temperature Precipitation Wind Pressure Humidity
    00:00 +8°C° 0.1 mm 2 mps 555 mmHg 84%
    01:00 +8°C° 0.1 mm 2 mps 554 mmHg 84%
    02:00 +8°C° 0.1 mm 2 mps 554 mmHg 84%
    03:00 +7°C° 0.1 mm 2 mps 554 mmHg 84%
    04:00 +7°C° 0.1 mm 2 mps 554 mmHg 84%
    05:00 +7°C° 0.1 mm 2 mps 554 mmHg 84%
    06:00 +6°C° 0.1 mm 2 mps 554 mmHg 84%
    07:00 +7°C° 0 mm 2 mps 555 mmHg 80%
    08:00 +8°C° 0 mm 2 mps 556 mmHg 76%
    09:00 +9°C° 0 mm 2 mps 557 mmHg 72%
    10:00 +12°C° 0 mm 2 mps 557 mmHg 67%
    11:00 +13°C° 0 mm 2 mps 558 mmHg 63%
    12:00 +14°C° 0 mm 2 mps 558 mmHg 58%
    13:00 +14°C° 0 mm 2 mps 557 mmHg 59%
    14:00 +13°C° 0 mm 2 mps 557 mmHg 60%
    15:00 +13°C° 0 mm 2 mps 556 mmHg 61%
    16:00 +10°C° 0 mm 2 mps 555 mmHg 67%
    17:00 +9°C° 0 mm 2 mps 555 mmHg 73%
    18:00 +8°C° 0 mm 1 mps 554 mmHg 80%
    19:00 +7°C° 0 mm 1 mps 554 mmHg 79%
    20:00 +6°C° 0 mm 1 mps 554 mmHg 78%
    21:00 +6°C° 0 mm 1 mps 554 mmHg 77%
    22:00 +5°C° 0 mm 1 mps 554 mmHg 77%
    23:00 +5°C° 0 mm 1 mps 554 mmHg 77%

    22 December, Saturday

    Time Temperature Precipitation Wind Pressure Humidity
    00:00 +5°C° 0 mm 1 mps 553 mmHg 77%
    01:00 +5°C° 0 mm 1 mps 553 mmHg 77%
    02:00 +5°C° 0 mm 1 mps 553 mmHg 77%
    03:00 +5°C° 0 mm 1 mps 552 mmHg 77%
    04:00 +5°C° 0 mm 1 mps 553 mmHg 76%
    05:00 +5°C° 0 mm 1 mps 553 mmHg 75%
    06:00 +5°C° 0 mm 1 mps 553 mmHg 74%
    07:00 +7°C° 0 mm 1 mps 555 mmHg 65%
    08:00 +10°C° 0 mm 1 mps 556 mmHg 57%
    09:00 +12°C° 0 mm 1 mps 558 mmHg 49%
    10:00 +14°C° 0 mm 1 mps 558 mmHg 44%
    11:00 +15°C° 0 mm 1 mps 559 mmHg 39%
    12:00 +18°C° 0 mm 1 mps 559 mmHg 35%
    13:00 +18°C° 0 mm 1 mps 559 mmHg 37%
    14:00 +16°C° 0 mm 1 mps 558 mmHg 39%
    15:00 +16°C° 0 mm 2 mps 557 mmHg 41%
    16:00 +14°C° 0 mm 1 mps 556 mmHg 52%
    17:00 +11°C° 0 mm 1 mps 555 mmHg 63%
    18:00 +9°C° 0 mm 1 mps 554 mmHg 73%
    19:00 +8°C° 0 mm 1 mps 555 mmHg 74%
    20:00 +8°C° 0 mm 1 mps 555 mmHg 75%
    21:00 +7°C° 0 mm 1 mps 555 mmHg 75%
    22:00 +7°C° 0 mm 1 mps 555 mmHg 75%
    23:00 +7°C° 0 mm 1 mps 554 mmHg 75%
    Show more